Location: Gollag?dem
(16.8053°N, 80.8024°E)
Time: 18:27:44
(UTC+00:00)

Cosmos 1727 Rocket - Pass Details

Date: 13 August 2020
Orbit: 961 x 996 km, 82.9° (Epoch: 19 September)

Event Time Altitude Azimuth Distance (km) Brightness Sun altitude
Rises 14:34:26 0° 353° (N) 3,707 7.4 -21.5°
Reaches altitude 10° 14:36:58 10° 352° (N) 2,755 6.7 -22.1°
Maximum altitude 14:43:17 78° 267° (W) 1,013 4.1 -23.4°
Enters shadow 14:48:23 16° 183° (S) 2,303 5.7 -24.5°
